星链-4419 (STARLINK-4419 )

导读

STARLINK-4419是美国SpaceX公司星链(Starlink)项目中的一颗卫星,于2022年7月22日发射升空,属于星链星座组网卫星,主要为全球提供低延迟、高速率的宽带互联网服务,尤其服务偏远地区和网络基础设施薄弱区域,依托低轨部署,能有效提升网络覆盖的广度与信号传输效率。

基本信息
目录编号:
53211
目录名称:
STARLINK-4419
国际标识:
2022-084Y
轨道中心:
EARTH
卫星名称:
星链-4419
卫星全名:
星链-4419 (STARLINK-4419 )
卫星状态:
已陨落 最后检测时间 2025-06-04
发射日期:
2022-07-22 UTC
国别 :
美国 (US)
星等 :
--
该卫星已列入 空间交会检测服务 Space Conjunction Data Service (SCDS) ,当前飞行风险评估等级: 无高风险
轨道信息
数据来源 国际轨道数据
星历时间: 2025-06-04T02:53:56+0800
轨道信息已过期465天
半长轴: 6504.318km
偏心率: 0.0010351
轨道倾角: 97.627°
近地点辐角 227.169°
升交点赤经 223.303°
平近点角 272.530°
近地点: 119.45km
远地点: 132.916km
周期: 87.009分钟
每日圈数: 16.550084
详细信息
固有亮度:
5
最大亮度:
2.5
卫星平台:
Starlink v1.5
覆盖范围:
全球
运营商:
太空探索技术公司
运营商所在国:
美国
制造商(研发单位):
太空探索技术公司
制造商所在国:
美国
使用方式:
暂无
卫星简介
星链(Starlink)计划是由太空探索技术公司(SpaceX)提出的一个巨型低轨卫星互联网星座项目,计划在2019年至2024年间在太空搭建由约1.2万颗卫星组成的“星链”网络,其中1584颗将部署在地球上空550千米处的近地轨道,并从2020年开始工作。该卫星仍在工作。
与全量物体交会距离演化趋势
与全量物体交会风险概率演化趋势